Regional Weather Roundup
Issued by NWS

Home | Current Version | Previous Version | Graphics & Text | Print | Product List | Glossary On
Versions: 1 2 3 4 5 6 7 8 9 10 11 12 13 14 15 16 17 18 19 20 21 22 23 24 25 26 27 28 29 30 31 32 33 34 35 36 37 38 39 40 41 42 43 44 45 46 47 48 49 50
000
ASUS43 KOAX 060002
RWRNE

WEATHER ROUNDUP FOR NEBRASKA
NATIONAL WEATHER SERVICE OMAHA NE
600 PM CST MON DEC 05 2016

NOTES: SATELLITE DATA IS BEING USED TO AUGMENT CLOUD COVER ABOVE
       12000 FEET.
       "FAIR" INDICATES FEW OR NO CLOUDS BELOW 12,000 FEET WITH NO
       SIGNIFICANT WEATHER AND/OR OBSTRUCTIONS TO VISIBILITY.

  * THESE STATIONS DO NOT REPORT WEATHER SUCH AS RAIN...SNOW OR FOG.

NEZ001>004-019>022-054>056-060100-
NEBRASKA PANHANDLE

CITY           SKY/WX    TMP DP  RH WIND       PRES   REMARKS
SCOTTSBLUFF    CLEAR     23  11  60 NW16G25   29.87R WCI  10
6HR MIN TEMP:  23; 6HR MAX TEMP:  45; 6HR PCP: TRACE;

ALLIANCE       CLEAR     23  11  60 NW22G31   29.80R WCI   8
6HR MIN TEMP:  23; 6HR MAX TEMP:  42; 6HR PCP: TRACE;

CHADRON        PTCLDY    24  12  60 W15       29.88R WCI  11
6HR MIN TEMP:  24; 6HR MAX TEMP:  33; 6HR PCP:  0.03;

KIMBALL        CLEAR     22  14  71 NW25G38   29.79R WCI   5
SIDNEY         CLOUDY    26  12  55 N12       29.82R WCI  16
6HR MIN TEMP:  25; 6HR MAX TEMP:  48;

$$

NEZ057>060-069>072-079>082-060100-
SOUTHWEST NEBRASKA

CITY           SKY/WX    TMP DP  RH WIND       PRES   REMARKS
NORTH PLATTE   CLOUDY    32  20  61 N17G31    29.79R WCI  21
6HR MIN TEMP:  32; 6HR MAX TEMP:  58;

IMPERIAL       CLOUDY    35  17  47 NW22G31   29.79R WCI  23
6HR MIN TEMP:  35; 6HR MAX TEMP:  53;

LEXINGTON      CLOUDY    43  30  60 N23G31    29.71R
MCCOOK         CLOUDY    46  19  34 MISG      29.71R
6HR MIN TEMP:  44; 6HR MAX TEMP:  54;

$$

NEZ005>010-023>029-035>040-094-060100-
NORTH CENTRAL NEBRASKA

CITY           SKY/WX    TMP DP  RH WIND       PRES   REMARKS
VALENTINE      PTCLDY    24  16  71 NW22G30   29.79R WCI   9
6HR MIN TEMP:  24; 6HR MAX TEMP:  40; 6HR PCP: TRACE;

AINSWORTH      CLOUDY    28  21  75 NW22G29   29.80R WCI  13
BROKEN BOW     CLOUDY    32  24  72 N30G40    29.76R WCI  18
6HR MIN TEMP:  32; 6HR MAX TEMP:  59;

ORD            CLOUDY    37  26  64 N24G33    29.75R WCI  26
6HR MIN TEMP:  37; 6HR MAX TEMP:  49;

$$

NEZ041-046>049-061>064-073>077-083>087-060100-
SOUTH CENTRAL NEBRASKA

CITY           SKY/WX    TMP DP  RH WIND       PRES   REMARKS
GRAND ISLAND   CLOUDY    45  36  70 NW8       29.69R
6HR MIN TEMP:  44; 6HR MAX TEMP:  50;

AURORA         CLOUDY    46  36  68 NW9       29.68R
HASTINGS       CLOUDY    46  35  65 W6        29.67R
6HR MIN TEMP:  45; 6HR MAX TEMP:  51;

HEBRON         CLEAR     42  34  74 SW6       29.66R
HOLDREGE       CLOUDY    46  29  51 N15       29.68R
KEARNEY *      CLOUDY    46  28  49 N20G25    29.69R
YORK           CLOUDY    46  37  71 SW8       29.66R
$$

NEZ011>018-030>034-042>045-060100-
NORTHEAST NEBRASKA

CITY           SKY/WX    TMP DP  RH WIND       PRES   REMARKS
NORFOLK        PTCLDY    39  30  70 NW16      29.70R WCI  30
6HR MIN TEMP:  39; 6HR MAX TEMP:  45;

ALBION         CLOUDY    39  31  71 NW18      29.72R WCI  30
BLAIR          CLOUDY    46  38  72 S9        29.67R
FREMONT        CLOUDY    46  36  67 SW3       29.69R
TEKAMAH        CLOUDY    43  37  79 S6        29.67R
6HR MIN TEMP:  43; 6HR MAX TEMP:  47;

WAYNE          MOCLDY    43  32  66 NW17      29.69R
$$

NEZ050>053-065>068-078-088>093-060100-
SOUTHEAST NEBRASKA

CITY           SKY/WX    TMP DP  RH WIND       PRES   REMARKS
LINCOLN        MOCLDY    44  34  67 S5        29.68R
6HR MIN TEMP:  43; 6HR MAX TEMP:  53;

OMAHA EPPLEY   MOCLDY    46  37  71 S13       29.67R
6HR MIN TEMP:  44; 6HR MAX TEMP:  52;

BEATRICE       CLEAR     44  34  67 S7        29.66R
FALLS CITY     CLEAR     39  34  82 SE8       29.70R WCI  33
6HR MIN TEMP:  39; 6HR MAX TEMP:  51;

NEBRASKA CITY  CLEAR     44  34  68 S12       29.68R
$$

NEZ044-045-051>053-067-060100-
OMAHA AREA

CITY           SKY/WX    TMP DP  RH WIND       PRES   REMARKS
OMAHA EPPLEY   MOCLDY    46  37  71 S13       29.67R
6HR MIN TEMP:  44; 6HR MAX TEMP:  52;

BLAIR          CLOUDY    46  38  72 S9        29.67R
FREMONT        CLOUDY    46  36  67 SW3       29.69R
OFFUTT AFB     PTCLDY    44  40  87 SE9       29.68R
WAHOO          CLOUDY    44  36  71 S5        29.67R
$$



USA.gov is the U.S. government's official web portal to all federal, state and local government web resources and services.